CAPE
2968 2148 1803 1584 1234 392 252 361 1311 1319 811 272 376 351 274 40 25 16 0 2 0 0
3071 2665 1571 1563 1801 1245 463 161 470 1162 627 421 275 343 149 39 94 67 30 2 15 6
3048 3072 2681 2377 2329 1689 882 355 758 863 579 413 344 360 197 65 103 123 50 0 0 5
2889 2715 2951 2509 2431 2247 1441 1051 709 871 622 387 484 218 353 298 228 96 139 75 33 40
2939 2599 2571 2698 2541 2683 1857 1404 854 888 651 468 290 52 5 146 126 30 69 153 133 109
3036 2770 2474 2780 2658 2718 2252 1377 908 887 630 366 212 33 16 71 106 132 151 161 152 170
3139 3039 2753 2717 2810 2893 2204 1421 904 810 649 260 262 12 41 21 173 176 241 175 198 209
3180 3124 3016 2552 2715 2808 2013 1471 938 604 466 275 86 12 6 45 160 350 334 148 366 411
3416 3173 3057 2837 2522 2591 2034 1123 894 678 176 215 0 0 2 78 33 211 232 359 472 535
3469 3422 3277 2967 2677 2462 1760 1168 656 361 288 0 14 0 0 0 16 88 244 423 660 535
3531 3553 3305 2799 2571 2203 1546 1274 817 496 107 17 321 24 0 0 15 129 187 241 777 629
3383 3581 3143 2567 2297 1868 1541 1284 1018 520 162 131 367 52 0 0 41 87 353 698 790 817
3392 3232 2855 2531 2204 1821 1602 1224 999 646 459 305 385 383 14 11 210 45 195 585 781 487
2969 2945 2700 2094 1965 1569 1272 1034 816 677 545 317 687 659 240 19 259 40 152 573 425 135
CIN
0 -6 -16 -25 -25 -102 -86 -76 -36 -46 -73 -134 -98 -77 -80 -150 -148 -110 0 -1 0 0
-9 -13 -43 -37 -43 -57 -95 -85 -105 -78 -113 -130 -130 -84 -101 -158 -80 -71 -84 -1 -90 -53
-33 -23 -19 -12 -16 -50 -76 -118 -97 -104 -135 -144 -145 -156 -126 -65 -53 -38 -52 0 0 -77
-64 -50 -31 -27 -29 -33 -60 -104 -87 -102 -109 -152 -155 -106 -100 -77 -37 -28 -5 -16 -16 -34
-76 -80 -73 -59 -40 -31 -71 -105 -130 -116 -109 -152 -206 -372 -139 -106 -63 -6 -13 -2 -4 -10
-93 -103 -96 -77 -55 -34 -77 -148 -182 -166 -174 -261 -254 -302 -317 -216 -126 -55 -4 -13 -12 -10
-108 -102 -92 -76 -61 -52 -110 -184 -228 -249 -245 -297 -245 -113 -263 -285 -105 -69 -10 -19 -11 -7
-102 -89 -68 -94 -73 -47 -125 -173 -256 -311 -319 -321 -364 -358 -265 -210 -98 -35 -9 -23 -4 -1
-75 -90 -85 -91 -89 -73 -124 -236 -265 -268 -402 -377 0 0 -170 -156 -169 -49 -17 -2 -3 -10
-76 -87 -92 -87 -95 -103 -156 -236 -298 -379 -346 0 -111 0 0 0 -150 -60 -4 -4 -4 -6
-69 -56 -81 -110 -126 -147 -200 -196 -279 -307 -432 -223 -154 -226 0 0 -161 -51 -17 -3 -2 -7
-104 -67 -100 -156 -178 -219 -237 -237 -221 -400 -394 -311 -109 -175 0 0 -118 -52 -14 -3 -3 -1
-96 -100 -124 -129 -143 -162 -159 -203 -185 -257 -288 -239 -131 -72 -97 -171 -26 -49 -5 -4 -8 -12
-89 -86 -101 -165 -158 -192 -189 -205 -211 -243 -207 -190 -56 -32 -110 -158 -20 -15 -9 -5 -8 -29
Wind_Speed
9 11 10 7 4 5 5 6 9 7 7 8 10 11 13 14 15 15 15 15 16 19
12 14 10 10 10 11 7 6 8 7 5 6 8 11 13 14 14 16 16 16 15 17
17 15 15 12 9 12 8 6 4 5 4 5 7 9 12 18 17 18 19 18 17 18
18 15 14 16 14 10 8 5 4 4 3 3 5 9 16 16 24 20 19 20 21 19
15 15 15 16 13 10 9 7 8 5 5 4 3 4 5 5 7 16 19 21 21 20
16 16 16 14 13 11 11 10 9 8 8 9 9 3 6 9 4 6 21 22 20 19
16 16 14 14 15 13 13 12 12 11 11 10 9 8 7 8 5 6 7 13 16 16
15 14 14 13 12 12 12 13 13 13 13 12 10 9 8 7 6 8 9 9 11 14
12 12 12 12 12 10 11 12 12 12 12 12 12 12 10 9 8 10 11 11 10 18
11 11 10 9 8 9 8 8 9 12 13 13 12 13 11 11 9 8 9 10 14 14
10 8 7 7 7 6 7 8 7 9 11 11 13 13 11 11 9 9 11 12 15 15
10 8 6 7 6 7 7 8 9 8 10 11 12 11 9 8 8 9 10 15 16 16
8 7 7 6 7 7 8 8 9 11 11 11 11 12 10 8 9 8 8 10 14 17
6 7 7 8 9 9 10 10 12 12 13 10 10 11 9 7 8 10 14 16 17 18
Wind_Direction
173 165 157 150 112 109 97 88 89 91 65 33 19 13 8 2 356 358 358 356 348 338
174 173 169 162 158 154 129 79 101 102 71 46 20 4 2 353 347 342 343 343 348 342
178 177 176 171 163 166 146 147 94 118 88 64 27 2 1 335 330 328 326 331 337 337
184 183 184 184 181 180 174 158 141 151 133 96 28 20 353 324 313 316 320 322 322 330
192 192 193 195 195 197 197 194 186 186 191 177 205 175 35 13 328 311 309 310 316 322
197 200 202 205 204 203 205 206 206 211 213 217 207 243 355 358 327 289 301 304 311 317
197 200 204 204 206 209 213 215 218 221 226 228 229 267 308 342 328 285 288 305 310 316
197 200 202 207 214 218 226 230 231 237 236 236 242 271 294 317 311 309 296 295 304 312
201 205 207 211 220 228 235 238 243 246 247 248 258 287 280 307 305 306 293 294 303 309
209 210 207 214 226 231 238 258 258 252 254 261 278 299 289 294 295 293 280 287 302 307
205 211 215 223 225 236 256 264 285 271 266 270 288 300 283 289 277 279 289 297 301 302
204 207 215 220 229 254 257 273 283 296 279 277 288 292 290 287 280 281 283 296 302 308
215 216 230 245 270 290 292 291 301 306 301 288 288 303 297 273 285 283 274 286 302 311
240 266 275 283 289 296 298 305 307 315 312 301 304 304 296 270 282 292 307 307 309 316